Location: The Saddle
(36.8333°N, 80.3417°W)
Time: 00:48:29
(UTC-04:00)

SEEDS - Pass Details

Date: 19 March 2026
Orbit: 470 x 477 km, 97.8° (Epoch: 20 April)

Event Time Altitude Azimuth Distance (km) Brightness Sun altitude
Rises 06:23:13 0° 18° (NNE) 2,542 ? -13.4°
Reaches altitude 10° 06:25:20 10° 23° (NNE) 1,657 ? -13.0°
Maximum altitude 06:28:48 49° 100° (E) 619 ? -12.3°
Drops below altitude 10° 06:32:13 10° 176° (S) 1,637 ? -11.6°
Sets 06:34:18 0° 182° (S) 2,508 ? -11.2°
